timestamp,wind_dir_avg,wind_spd_avg,wind_spd_max_dir,wind_spd_gust,battery_voltage,lat,long
2022-09-16 00:04:00+00:00,209.0,7.14,212.0,8.09,12.57,47.59359,-54.27349
2022-09-16 00:14:00+00:00,213.0,5.83,217.0,6.94,12.57,47.59359,-54.27349
2022-09-16 00:24:00+00:00,210.0,5.82,215.0,6.93,12.57,47.59359,-54.27349
2022-09-16 00:34:00+00:00,227.0,5.78,221.0,6.74,12.57,47.59359,-54.27349
2022-09-16 00:44:00+00:00,208.0,4.57,205.0,5.24,12.57,47.59359,-54.27349
2022-09-16 00:54:00+00:00,195.0,5.14,193.0,5.75,12.57,47.59359,-54.27349
2022-09-16 01:04:00+00:00,214.0,5.29,227.0,6.3,12.57,47.59359,-54.27349
2022-09-16 01:14:00+00:00,206.0,6.55,208.0,7.53,12.57,47.59359,-54.27349
2022-09-16 01:24:00+00:00,233.0,5.49,231.0,6.53,12.57,47.59359,-54.27349
2022-09-16 01:34:00+00:00,228.0,5.99,229.0,7.34,12.57,47.59359,-54.27349
2022-09-16 01:44:00+00:00,234.0,6.07,242.0,7.56,12.57,47.59359,-54.27349
2022-09-16 01:54:00+00:00,232.0,6.48,238.0,7.63,12.57,47.59359,-54.27349
2022-09-16 02:04:00+00:00,231.0,7.49,232.0,9.06,12.57,47.59359,-54.27349
2022-09-16 02:14:01+00:00,233.0,5.34,235.0,6.27,12.57,47.59359,-54.27349
2022-09-16 02:24:01+00:00,232.0,6.78,231.0,7.86,12.57,47.59359,-54.27349
2022-09-16 02:34:01+00:00,230.0,6.63,232.0,7.34,12.57,47.59359,-54.27349
2022-09-16 02:44:01+00:00,229.0,6.66,224.0,7.98,12.57,47.59359,-54.27349
2022-09-16 02:54:01+00:00,230.0,6.04,224.0,7.18,12.57,47.59359,-54.27349
2022-09-16 03:04:01+00:00,229.0,5.71,234.0,6.74,12.57,47.59359,-54.27349
2022-09-16 03:14:00+00:00,229.0,5.81,230.0,7.1,12.57,47.59359,-54.27349
2022-09-16 03:24:00+00:00,233.0,5.73,235.0,6.58,12.57,47.59359,-54.27349
2022-09-16 03:34:00+00:00,222.0,4.3,232.0,5.35,12.57,47.59359,-54.27349
2022-09-16 03:44:00+00:00,234.0,6.82,239.0,8.06,12.57,47.59359,-54.27349
2022-09-16 03:54:00+00:00,251.0,7.49,245.0,8.11,12.57,47.59359,-54.27349
2022-09-16 04:04:00+00:00,248.0,6.81,241.0,7.63,12.57,47.59359,-54.27349
2022-09-16 04:14:00+00:00,240.0,6.67,240.0,7.54,12.49,47.59359,-54.27349
2022-09-16 04:24:00+00:00,237.0,5.44,240.0,6.07,12.49,47.59359,-54.27349
2022-09-16 04:34:00+00:00,243.0,5.9,245.0,6.58,12.49,47.59359,-54.27349
2022-09-16 04:44:00+00:00,237.0,4.78,239.0,5.46,12.49,47.59359,-54.27349
2022-09-16 04:54:00+00:00,232.0,4.53,232.0,5.15,12.49,47.59359,-54.27349
2022-09-16 05:04:00+00:00,230.0,5.68,237.0,7.38,12.49,47.59359,-54.27349
2022-09-16 05:14:01+00:00,229.0,5.98,235.0,7.17,12.49,47.59359,-54.27349
2022-09-16 05:24:01+00:00,231.0,5.6,230.0,6.68,12.49,47.59359,-54.27349
2022-09-16 05:34:01+00:00,234.0,5.51,235.0,6.01,12.49,47.59359,-54.27349
2022-09-16 05:44:01+00:00,239.0,7.18,239.0,8.26,12.49,47.59359,-54.27349
2022-09-16 05:54:01+00:00,223.0,5.97,235.0,8.33,12.49,47.59359,-54.27349
2022-09-16 06:04:01+00:00,225.0,5.73,222.0,6.52,12.49,47.59359,-54.27349
2022-09-16 06:14:00+00:00,232.0,5.53,242.0,6.25,12.41,47.59359,-54.27349
2022-09-16 06:24:00+00:00,231.0,5.4,232.0,6.67,12.41,47.59359,-54.27349
2022-09-16 06:34:00+00:00,233.0,4.56,233.0,5.16,12.41,47.59359,-54.27349
2022-09-16 06:44:00+00:00,231.0,4.48,231.0,5.25,12.41,47.59359,-54.27349
2022-09-16 06:54:00+00:00,221.0,4.3,219.0,4.97,12.41,47.59359,-54.27349
2022-09-16 07:04:00+00:00,229.0,4.58,232.0,5.3,12.41,47.59359,-54.27349
2022-09-16 07:14:01+00:00,228.0,5.02,233.0,6.33,12.41,47.59359,-54.27349
2022-09-16 07:24:01+00:00,229.0,4.79,233.0,5.68,12.41,47.59359,-54.27349
2022-09-16 07:34:01+00:00,223.0,4.74,224.0,5.41,12.41,47.59359,-54.27349
2022-09-16 07:44:01+00:00,226.0,5.1,217.0,6.01,12.41,47.59359,-54.27349
2022-09-16 07:54:01+00:00,227.0,5.92,240.0,8.57,12.41,47.59359,-54.27349
2022-09-16 08:04:01+00:00,231.0,6.52,237.0,8.42,12.41,47.59359,-54.27349
2022-09-16 08:14:00+00:00,234.0,8.61,244.0,10.32,12.41,47.59359,-54.27349
2022-09-16 08:24:00+00:00,244.0,9.07,243.0,10.3,12.41,47.59359,-54.27349
2022-09-16 08:34:00+00:00,242.0,9.38,243.0,10.88,12.41,47.59359,-54.27349
2022-09-16 08:44:00+00:00,239.0,8.52,244.0,10.97,12.41,47.59359,-54.27349
2022-09-16 08:54:00+00:00,236.0,7.85,244.0,11.0,12.41,47.59359,-54.27349
2022-09-16 09:04:00+00:00,246.0,8.92,245.0,10.86,12.41,47.59359,-54.27349
2022-09-16 09:14:01+00:00,244.0,9.0,248.0,10.77,12.33,47.59359,-54.27349
2022-09-16 09:24:01+00:00,247.0,10.54,249.0,11.35,12.33,47.59359,-54.27349
2022-09-16 09:34:01+00:00,236.0,6.18,247.0,9.81,12.33,47.59359,-54.27349
2022-09-16 09:44:01+00:00,230.0,4.65,223.0,5.5,12.33,47.59359,-54.27349
2022-09-16 09:54:01+00:00,229.0,5.94,244.0,8.4,12.33,47.59359,-54.27349
2022-09-16 10:04:01+00:00,240.0,8.72,246.0,11.09,12.33,47.59359,-54.27349
2022-09-16 10:14:00+00:00,242.0,9.45,243.0,11.43,12.41,47.59359,-54.27349
2022-09-16 10:24:00+00:00,234.0,8.72,238.0,11.56,12.41,47.59359,-54.27349
2022-09-16 10:34:00+00:00,237.0,10.06,238.0,11.9,12.41,47.59359,-54.27349
2022-09-16 10:44:00+00:00,234.0,8.45,246.0,11.44,12.41,47.59359,-54.27349
2022-09-16 10:54:00+00:00,240.0,9.8,239.0,11.39,12.41,47.59359,-54.27349
2022-09-16 11:04:00+00:00,242.0,10.04,240.0,11.65,12.41,47.59359,-54.27349
2022-09-16 11:14:00+00:00,239.0,10.37,241.0,11.76,13.29,47.59359,-54.27349
2022-09-16 11:24:00+00:00,234.0,10.09,236.0,11.99,13.29,47.59359,-54.27349
2022-09-16 11:34:00+00:00,235.0,8.97,239.0,11.21,13.29,47.59359,-54.27349
2022-09-16 11:44:00+00:00,235.0,9.85,240.0,11.3,13.29,47.59359,-54.27349
2022-09-16 11:54:00+00:00,232.0,10.13,240.0,11.52,13.29,47.59359,-54.27349
2022-09-16 12:04:00+00:00,239.0,7.88,243.0,10.85,13.29,47.59359,-54.27349
2022-09-16 12:14:01+00:00,232.0,10.26,230.0,11.64,13.29,47.59359,-54.27349
2022-09-16 12:24:01+00:00,240.0,10.57,240.0,11.93,13.29,47.59359,-54.27349
2022-09-16 12:34:01+00:00,226.0,8.35,239.0,11.39,13.29,47.59359,-54.27349
2022-09-16 12:44:01+00:00,234.0,9.79,233.0,12.31,13.29,47.59359,-54.27349
2022-09-16 12:54:01+00:00,229.0,11.15,229.0,13.2,13.29,47.59359,-54.27349
2022-09-16 13:04:01+00:00,231.0,10.09,238.0,11.9,13.29,47.59359,-54.27349
2022-09-16 13:14:01+00:00,231.0,10.02,234.0,12.07,13.68,47.59359,-54.27349
2022-09-16 13:24:01+00:00,234.0,8.79,242.0,10.5,13.68,47.59359,-54.27349
2022-09-16 13:34:01+00:00,226.0,10.34,229.0,12.31,13.68,47.59359,-54.27349
2022-09-16 13:44:01+00:00,232.0,10.28,242.0,12.1,13.68,47.59359,-54.27349
2022-09-16 13:54:01+00:00,232.0,11.31,235.0,13.28,13.68,47.59359,-54.27349
2022-09-16 14:04:01+00:00,243.0,9.19,248.0,10.61,13.68,47.59359,-54.27349
2022-09-16 14:14:00+00:00,237.0,9.23,241.0,10.6,14.24,47.59359,-54.27349
2022-09-16 14:24:00+00:00,239.0,11.27,245.0,13.22,14.24,47.59359,-54.27349
2022-09-16 14:34:00+00:00,245.0,9.45,251.0,11.46,14.24,47.59359,-54.27349
2022-09-16 14:44:00+00:00,244.0,11.26,247.0,12.69,14.24,47.59359,-54.27349
2022-09-16 14:54:00+00:00,241.0,9.43,239.0,10.83,14.24,47.59359,-54.27349
2022-09-16 15:04:00+00:00,240.0,10.6,238.0,11.85,14.24,47.59359,-54.27349
2022-09-16 15:14:00+00:00,236.0,8.68,237.0,11.57,14.32,47.59359,-54.27349
2022-09-16 15:24:00+00:00,234.0,9.56,239.0,10.45,14.32,47.59359,-54.27349
2022-09-16 15:34:00+00:00,241.0,9.44,242.0,10.4,14.32,47.59359,-54.27349
2022-09-16 15:44:00+00:00,230.0,10.21,228.0,11.86,14.32,47.59359,-54.27349
2022-09-16 15:54:00+00:00,233.0,10.4,240.0,12.27,14.32,47.59359,-54.27349
2022-09-16 16:04:00+00:00,237.0,9.96,235.0,11.75,14.32,47.59359,-54.27349
2022-09-16 16:14:01+00:00,238.0,10.11,243.0,11.84,13.84,47.59359,-54.27349
2022-09-16 16:24:01+00:00,236.0,9.94,237.0,11.41,13.84,47.59359,-54.27349
2022-09-16 16:34:01+00:00,240.0,9.38,243.0,10.57,13.84,47.59359,-54.27349
2022-09-16 16:44:01+00:00,251.0,9.32,255.0,10.77,13.84,47.59359,-54.27349
2022-09-16 16:54:01+00:00,252.0,10.41,256.0,11.81,13.84,47.59359,-54.27349
2022-09-16 17:04:01+00:00,245.0,10.12,248.0,11.42,13.84,47.59359,-54.27349
2022-09-16 17:14:01+00:00,253.0,9.6,250.0,11.05,13.76,47.59359,-54.27349
2022-09-16 17:24:01+00:00,254.0,12.12,250.0,14.69,13.76,47.59359,-54.27349
2022-09-16 17:34:01+00:00,252.0,10.67,253.0,12.86,13.76,47.59359,-54.27349
2022-09-16 17:44:01+00:00,257.0,11.46,257.0,13.76,13.76,47.59359,-54.27349
2022-09-16 17:54:01+00:00,250.0,10.5,251.0,13.43,13.76,47.59359,-54.27349
2022-09-16 18:04:01+00:00,256.0,11.85,257.0,13.96,13.76,47.59359,-54.27349
2022-09-16 18:14:01+00:00,257.0,11.0,264.0,12.71,13.68,47.59359,-54.27349
2022-09-16 18:24:01+00:00,254.0,10.67,253.0,12.79,13.68,47.59359,-54.27349
2022-09-16 18:34:01+00:00,256.0,8.92,258.0,10.72,13.68,47.59359,-54.27349
2022-09-16 18:44:01+00:00,256.0,10.04,255.0,11.41,13.68,47.59359,-54.27349
2022-09-16 18:54:01+00:00,261.0,11.54,257.0,12.52,13.68,47.59359,-54.27349
2022-09-16 19:04:01+00:00,265.0,12.29,263.0,13.87,13.68,47.59359,-54.27349
2022-09-16 19:14:00+00:00,253.0,12.1,255.0,13.41,13.84,47.59359,-54.27349
2022-09-16 19:24:00+00:00,261.0,13.55,262.0,15.02,13.84,47.59359,-54.27349
2022-09-16 19:34:00+00:00,253.0,11.27,255.0,13.17,13.84,47.59359,-54.27349
2022-09-16 19:44:00+00:00,254.0,9.85,255.0,10.83,13.84,47.59359,-54.27349
2022-09-16 19:54:00+00:00,254.0,9.48,252.0,10.47,13.84,47.59359,-54.27349
2022-09-16 20:04:00+00:00,256.0,9.7,257.0,11.7,13.84,47.59359,-54.27349
2022-09-16 20:14:00+00:00,258.0,7.02,268.0,7.7,13.76,47.59359,-54.27349
2022-09-16 20:24:00+00:00,266.0,6.94,261.0,7.86,13.76,47.59359,-54.27349
2022-09-16 20:34:00+00:00,274.0,6.94,274.0,8.39,13.76,47.59359,-54.27349
2022-09-16 20:44:00+00:00,289.0,9.37,298.0,11.19,13.76,47.59359,-54.27349
2022-09-16 20:54:00+00:00,277.0,5.37,276.0,6.22,13.76,47.59359,-54.27349
2022-09-16 21:04:00+00:00,260.0,6.55,257.0,7.27,13.76,47.59359,-54.27349
2022-09-16 21:14:00+00:00,261.0,8.0,256.0,8.89,13.13,47.59359,-54.27349
2022-09-16 21:24:00+00:00,250.0,7.11,249.0,7.65,13.13,47.59359,-54.27349
2022-09-16 21:34:00+00:00,249.0,5.95,251.0,6.54,13.13,47.59359,-54.27349
2022-09-16 21:44:00+00:00,269.0,5.93,271.0,6.42,13.13,47.59359,-54.27349
2022-09-16 21:54:00+00:00,265.0,6.03,270.0,6.58,13.13,47.59359,-54.27349
2022-09-16 22:04:00+00:00,266.0,6.73,266.0,7.33,13.13,47.59359,-54.27349
2022-09-16 22:14:00+00:00,263.0,5.93,266.0,6.31,12.65,47.59359,-54.27349
2022-09-16 22:24:00+00:00,265.0,6.5,260.0,7.13,12.65,47.59359,-54.27349
2022-09-16 22:34:00+00:00,264.0,6.85,267.0,7.47,12.65,47.59359,-54.27349
2022-09-16 22:44:00+00:00,256.0,7.19,257.0,7.76,12.65,47.59359,-54.27349
2022-09-16 22:54:00+00:00,260.0,6.78,258.0,7.47,12.65,47.59359,-54.27349
2022-09-16 23:04:00+00:00,259.0,6.6,257.0,7.17,12.65,47.59359,-54.27349
2022-09-16 23:14:00+00:00,264.0,6.98,263.0,7.67,12.57,47.59359,-54.27349
2022-09-16 23:24:00+00:00,263.0,7.15,258.0,7.61,12.57,47.59359,-54.27349
2022-09-16 23:34:00+00:00,259.0,6.87,259.0,7.77,12.57,47.59359,-54.27349
2022-09-16 23:44:00+00:00,257.0,6.42,256.0,7.11,12.57,47.59359,-54.27349
2022-09-16 23:54:00+00:00,259.0,6.67,262.0,7.36,12.57,47.59359,-54.27349
